• In Hungary
  • List of Countries
  • For 7 days
  • Water Temperature
  • Satellite Maps
  • Weather Map
  • News
  • Weather Widgets
  • user-avatar
    Login

    Hourly Weather Chernigovskiy

    Today, 25 May, Friday

    Time Temperature Precipitation Wind Pressure Humidity
    00:00 +16°C° 0.3 mm 0 mps 735 mmHg 80%
    01:00 +15°C° 0.3 mm 0 mps 735 mmHg 82%
    02:00 +15°C° 0.1 mm 0 mps 734 mmHg 82%
    03:00 +15°C° 0.1 mm 0 mps 734 mmHg 83%
    04:00 +15°C° 0.1 mm 1 mps 734 mmHg 84%
    05:00 +16°C° 0 mm 1 mps 733 mmHg 81%
    06:00 +18°C° 0 mm 2 mps 733 mmHg 77%
    07:00 +19°C° 0 mm 2 mps 733 mmHg 73%
    08:00 +20°C° 0 mm 3 mps 732 mmHg 67%
    09:00 +22°C° 0 mm 4 mps 732 mmHg 60%
    10:00 +23°C° 0 mm 5 mps 732 mmHg 53%
    11:00 +22°C° 0 mm 5 mps 732 mmHg 58%
    12:00 +21°C° 0 mm 5 mps 732 mmHg 62%
    13:00 +21°C° 0 mm 5 mps 731 mmHg 67%
    14:00 +20°C° 0.3 mm 5 mps 731 mmHg 71%
    15:00 +19°C° 0.3 mm 5 mps 731 mmHg 75%
    16:00 +18°C° 0.3 mm 4 mps 731 mmHg 80%
    17:00 +16°C° 0.2 mm 5 mps 731 mmHg 82%
    18:00 +14°C° 0.2 mm 5 mps 731 mmHg 84%
    19:00 +13°C° 0.2 mm 6 mps 730 mmHg 87%
    20:00 +11°C° 0.5 mm 6 mps 731 mmHg 87%
    21:00 +10°C° 0.5 mm 6 mps 731 mmHg 87%
    22:00 +8°C° 0.5 mm 6 mps 731 mmHg 88%
    23:00 +8°C° 0.3 mm 6 mps 731 mmHg 86%

    Tomorrow, 26 May, Saturday

    Time Temperature Precipitation Wind Pressure Humidity
    00:00 +7°C° 0.3 mm 6 mps 731 mmHg 85%
    01:00 +5°C° 0.3 mm 6 mps 731 mmHg 83%
    02:00 +4°C° 0 mm 6 mps 732 mmHg 82%
    03:00 +4°C° 0 mm 6 mps 732 mmHg 81%
    04:00 +3°C° 0 mm 6 mps 732 mmHg 80%
    05:00 +4°C° 0 mm 7 mps 733 mmHg 78%
    06:00 +5°C° 0 mm 7 mps 733 mmHg 75%
    07:00 +5°C° 0 mm 8 mps 734 mmHg 73%
    08:00 +6°C° 0 mm 8 mps 735 mmHg 67%
    09:00 +7°C° 0 mm 8 mps 735 mmHg 60%
    10:00 +9°C° 0 mm 8 mps 736 mmHg 53%
    11:00 +10°C° 0 mm 8 mps 736 mmHg 50%
    12:00 +11°C° 0 mm 7 mps 737 mmHg 47%
    13:00 +12°C° 0 mm 7 mps 737 mmHg 44%
    14:00 +12°C° 0 mm 7 mps 737 mmHg 44%
    15:00 +12°C° 0 mm 7 mps 738 mmHg 44%
    16:00 +12°C° 0 mm 7 mps 738 mmHg 44%
    17:00 +11°C° 0 mm 7 mps 738 mmHg 48%
    18:00 +10°C° 0 mm 6 mps 739 mmHg 51%
    19:00 +9°C° 0 mm 6 mps 739 mmHg 55%
    20:00 +8°C° 0 mm 6 mps 740 mmHg 56%
    21:00 +6°C° 0 mm 5 mps 740 mmHg 58%
    22:00 +5°C° 0 mm 4 mps 741 mmHg 60%
    23:00 +4°C° 0 mm 4 mps 741 mmHg 62%

    Day after tomorrow, 27 May, Sunday

    Time Temperature Precipitation Wind Pressure Humidity
    00:00 +3°C° 0 mm 3 mps 742 mmHg 64%
    01:00 +3°C° 0 mm 3 mps 742 mmHg 67%
    02:00 +2°C° 0 mm 3 mps 742 mmHg 68%
    03:00 +3°C° 0 mm 2 mps 742 mmHg 69%
    04:00 +2°C° 0 mm 2 mps 743 mmHg 70%
    05:00 +4°C° 0 mm 2 mps 743 mmHg 66%
    06:00 +6°C° 0 mm 2 mps 743 mmHg 62%
    07:00 +7°C° 0 mm 2 mps 744 mmHg 57%
    08:00 +9°C° 0 mm 3 mps 744 mmHg 53%
    09:00 +11°C° 0 mm 3 mps 744 mmHg 48%
    10:00 +12°C° 0 mm 4 mps 744 mmHg 43%
    11:00 +13°C° 0 mm 4 mps 743 mmHg 43%
    12:00 +14°C° 0 mm 4 mps 743 mmHg 44%
    13:00 +15°C° 0 mm 5 mps 743 mmHg 44%
    14:00 +16°C° 0 mm 5 mps 742 mmHg 46%
    15:00 +16°C° 0 mm 5 mps 742 mmHg 47%
    16:00 +16°C° 0 mm 6 mps 741 mmHg 49%
    17:00 +16°C° 0 mm 5 mps 741 mmHg 54%
    18:00 +15°C° 0 mm 5 mps 740 mmHg 59%
    19:00 +14°C° 0 mm 4 mps 740 mmHg 64%
    20:00 +13°C° 0 mm 4 mps 739 mmHg 66%
    21:00 +12°C° 0 mm 4 mps 739 mmHg 68%
    22:00 +10°C° 0 mm 4 mps 739 mmHg 70%
    23:00 +9°C° 0 mm 5 mps 738 mmHg 69%

    28 May, Monday

    Time Temperature Precipitation Wind Pressure Humidity
    00:00 +9°C° 0 mm 5 mps 737 mmHg 69%
    01:00 +9°C° 0 mm 6 mps 736 mmHg 68%
    02:00 +9°C° 0.3 mm 6 mps 736 mmHg 71%
    03:00 +9°C° 0.3 mm 6 mps 735 mmHg 74%
    04:00 +9°C° 0.3 mm 7 mps 734 mmHg 77%
    05:00 +9°C° 0.2 mm 7 mps 734 mmHg 77%
    06:00 +10°C° 0.2 mm 8 mps 733 mmHg 77%
    07:00 +10°C° 0.2 mm 8 mps 732 mmHg 77%
    08:00 +9°C° 1.2 mm 8 mps 732 mmHg 81%
    09:00 +9°C° 1.2 mm 7 mps 732 mmHg 84%
    10:00 +8°C° 1.2 mm 7 mps 732 mmHg 88%
    11:00 +9°C° 0.1 mm 6 mps 732 mmHg 79%
    12:00 +10°C° 0.1 mm 6 mps 733 mmHg 70%
    13:00 +11°C° 0.1 mm 6 mps 733 mmHg 61%
    14:00 +11°C° 0.3 mm 6 mps 733 mmHg 60%
    15:00 +11°C° 0.3 mm 6 mps 733 mmHg 59%
    16:00 +11°C° 0.3 mm 7 mps 733 mmHg 57%
    17:00 +10°C° 0.1 mm 6 mps 733 mmHg 61%
    18:00 +9°C° 0.1 mm 6 mps 733 mmHg 65%
    19:00 +8°C° 0.1 mm 5 mps 733 mmHg 69%
    20:00 +7°C° 0 mm 5 mps 734 mmHg 72%
    21:00 +5°C° 0 mm 4 mps 734 mmHg 75%
    22:00 +4°C° 0 mm 3 mps 734 mmHg 78%
    23:00 +3°C° 0 mm 4 mps 734 mmHg 78%

    29 May, Tuesday

    Time Temperature Precipitation Wind Pressure Humidity
    00:00 +1°C° 0 mm 4 mps 734 mmHg 79%
    01:00 0°C° 0 mm 4 mps 734 mmHg 79%
    02:00 0°C° 0 mm 4 mps 735 mmHg 80%
    03:00 0°C° 0 mm 4 mps 735 mmHg 81%
    04:00 0°C° 0 mm 3 mps 735 mmHg 82%
    05:00 0°C° 0 mm 4 mps 735 mmHg 77%
    06:00 +2°C° 0 mm 5 mps 735 mmHg 71%
    07:00 +3°C° 0 mm 6 mps 735 mmHg 65%
    08:00 +4°C° 0.1 mm 6 mps 735 mmHg 62%
    09:00 +5°C° 0.1 mm 7 mps 735 mmHg 58%
    10:00 +6°C° 0.1 mm 7 mps 735 mmHg 54%
    11:00 +6°C° 0.2 mm 7 mps 735 mmHg 54%
    12:00 +7°C° 0.2 mm 8 mps 735 mmHg 54%
    13:00 +7°C° 0.2 mm 8 mps 735 mmHg 53%
    14:00 +7°C° 0.3 mm 8 mps 734 mmHg 55%
    15:00 +7°C° 0.3 mm 8 mps 734 mmHg 56%
    16:00 +7°C° 0.3 mm 8 mps 734 mmHg 58%
    17:00 +7°C° 0.1 mm 6 mps 734 mmHg 61%
    18:00 +7°C° 0.1 mm 5 mps 734 mmHg 64%
    19:00 +6°C° 0.1 mm 4 mps 734 mmHg 67%
    20:00 +5°C° 0 mm 3 mps 734 mmHg 72%
    21:00 +4°C° 0 mm 2 mps 735 mmHg 77%
    22:00 +2°C° 0 mm 2 mps 735 mmHg 83%
    23:00 +3°C° 0 mm 1 mps 735 mmHg 83%

    30 May, Wednesday

    Time Temperature Precipitation Wind Pressure Humidity
    00:00 +3°C° 0 mm 1 mps 735 mmHg 84%
    01:00 +2°C° 0 mm 1 mps 735 mmHg 85%
    02:00 +2°C° 0 mm 1 mps 734 mmHg 85%
    03:00 +2°C° 0 mm 1 mps 734 mmHg 85%
    04:00 +2°C° 0 mm 1 mps 734 mmHg 85%
    05:00 +2°C° 0 mm 2 mps 734 mmHg 81%
    06:00 +4°C° 0 mm 2 mps 733 mmHg 77%
    07:00 +5°C° 0 mm 3 mps 733 mmHg 72%
    08:00 +4°C° 1.1 mm 4 mps 732 mmHg 77%
    09:00 +3°C° 1.1 mm 5 mps 731 mmHg 82%
    10:00 +3°C° 1.1 mm 5 mps 730 mmHg 87%
    11:00 +4°C° 0.7 mm 6 mps 729 mmHg 89%
    12:00 +4°C° 0.7 mm 6 mps 728 mmHg 92%
    13:00 +4°C° 0.7 mm 6 mps 727 mmHg 94%
    14:00 +8°C° 0.2 mm 6 mps 727 mmHg 91%
    15:00 +10°C° 0.2 mm 5 mps 727 mmHg 88%
    16:00 +13°C° 0.2 mm 5 mps 726 mmHg 85%
    17:00 +13°C° 0.2 mm 5 mps 726 mmHg 83%
    18:00 +14°C° 0.2 mm 5 mps 727 mmHg 81%
    19:00 +14°C° 0.2 mm 5 mps 727 mmHg 79%
    20:00 +12°C° 0 mm 4 mps 727 mmHg 81%
    21:00 +10°C° 0 mm 3 mps 727 mmHg 84%
    22:00 +9°C° 0 mm 1 mps 727 mmHg 87%
    23:00 +9°C° 0.3 mm 2 mps 727 mmHg 89%
    Show more